Time,TemperatureF,DewpointF,PressureIn,WindDirection,WindDirectionDegrees,WindSpeedMPH,WindSpeedGustMPH,Humidity,HourlyPrecipIn,Conditions,Clouds,dailyrainin,SoftwareType,DateUTC
2013-11-15 00:01:00,42.6,27.1,29.95,North,1,0.0,0.0,54,0.00,CLR,,0.00,WeatherDisplay:10.37,2013-11-15 06:01:00,
2013-11-15 00:06:00,42.8,27.3,29.95,North,1,0.0,0.0,54,0.00,CLR,,0.00,WeatherDisplay:10.37,2013-11-15 06:06:00,
2013-11-15 00:11:00,43.0,27.5,29.94,North,1,0.0,0.0,54,0.00,CLR,,0.00,WeatherDisplay:10.37,2013-11-15 06:11:00,
2013-11-15 00:16:00,43.0,27.5,29.94,North,1,0.0,0.0,54,0.00,CLR,,0.00,WeatherDisplay:10.37,2013-11-15 06:16:00,
2013-11-15 00:21:00,43.0,27.5,29.94,North,1,0.0,0.0,54,0.00,CLR,,0.00,WeatherDisplay:10.37,2013-11-15 06:21:00,
2013-11-15 00:26:00,43.2,27.6,29.94,North,1,0.0,0.0,54,0.00,CLR,,0.00,WeatherDisplay:10.37,2013-11-15 06:26:00,
2013-11-15 00:31:00,43.2,27.6,29.95,North,1,0.0,0.0,54,0.00,CLR,,0.00,WeatherDisplay:10.37,2013-11-15 06:31:00,
2013-11-15 00:36:00,43.2,27.6,29.95,North,1,0.0,0.0,54,0.00,CLR,,0.00,WeatherDisplay:10.37,2013-11-15 06:36:00,
2013-11-15 00:41:00,43.2,27.6,29.95,North,1,0.0,0.0,54,0.00,CLR,,0.00,WeatherDisplay:10.37,2013-11-15 06:41:00,
2013-11-15 00:46:00,43.2,27.6,29.94,North,1,0.0,0.0,54,0.00,CLR,,0.00,WeatherDisplay:10.37,2013-11-15 06:46:00,
2013-11-15 00:51:00,43.5,28.0,29.94,North,1,0.0,0.0,54,0.00,CLR,,0.00,WeatherDisplay:10.37,2013-11-15 06:51:00,
2013-11-15 00:56:00,43.5,28.0,29.94,North,1,0.0,0.0,54,0.00,CLR,,0.00,WeatherDisplay:10.37,2013-11-15 06:56:00,
2013-11-15 01:01:00,43.7,28.1,29.94,North,1,0.0,0.0,54,0.00,CLR,,0.00,WeatherDisplay:10.37,2013-11-15 07:01:00,
2013-11-15 01:06:00,43.7,27.7,29.94,North,1,0.0,0.0,53,0.00,CLR,,0.00,WeatherDisplay:10.37,2013-11-15 07:06:00,
2013-11-15 01:11:00,43.9,27.8,29.93,North,1,0.0,0.0,53,0.00,CLR,,0.00,WeatherDisplay:10.37,2013-11-15 07:11:00,
2013-11-15 01:16:00,43.9,27.8,29.93,North,1,0.0,0.0,53,0.00,CLR,,0.00,WeatherDisplay:10.37,2013-11-15 07:16:00,
2013-11-15 01:21:00,43.9,27.8,29.93,North,1,0.0,0.0,53,0.00,CLR,,0.00,WeatherDisplay:10.37,2013-11-15 07:21:00,
2013-11-15 01:26:00,44.1,28.0,29.93,North,1,0.0,0.0,53,0.00,CLR,,0.00,WeatherDisplay:10.37,2013-11-15 07:26:00,
2013-11-15 01:31:00,44.1,28.0,29.93,North,1,0.0,0.0,53,0.00,CLR,,0.00,WeatherDisplay:10.37,2013-11-15 07:31:00,
2013-11-15 01:36:00,44.1,28.0,29.93,North,1,0.0,0.0,53,0.00,CLR,,0.00,WeatherDisplay:10.37,2013-11-15 07:36:00,
2013-11-15 01:41:00,44.1,28.0,29.93,North,1,0.0,0.0,53,0.00,CLR,,0.00,WeatherDisplay:10.37,2013-11-15 07:41:00,
2013-11-15 01:46:00,44.1,28.0,29.93,North,1,0.0,0.0,53,0.00,CLR,,0.00,WeatherDisplay:10.37,2013-11-15 07:46:00,
2013-11-15 01:51:00,44.1,28.0,29.93,North,1,0.0,0.0,53,0.00,CLR,,0.00,WeatherDisplay:10.37,2013-11-15 07:51:00,
2013-11-15 01:56:00,44.1,28.0,29.93,North,1,0.0,0.0,53,0.00,CLR,,0.00,WeatherDisplay:10.37,2013-11-15 07:56:00,
2013-11-15 02:01:00,44.1,28.0,29.93,North,1,0.0,0.0,53,0.00,CLR,,0.00,WeatherDisplay:10.37,2013-11-15 08:01:00,
2013-11-15 02:06:00,43.9,27.8,29.93,North,1,0.0,0.0,53,0.00,CLR,,0.00,WeatherDisplay:10.37,2013-11-15 08:06:00,
2013-11-15 02:11:00,43.9,27.8,29.93,North,1,0.0,0.0,53,0.00,CLR,,0.00,WeatherDisplay:10.37,2013-11-15 08:11:00,
2013-11-15 02:16:00,43.9,28.3,29.93,North,1,0.0,0.0,54,0.00,CLR,,0.00,WeatherDisplay:10.37,2013-11-15 08:16:00,
2013-11-15 02:21:00,43.7,28.1,29.93,North,1,0.0,0.0,54,0.00,CLR,,0.00,WeatherDisplay:10.37,2013-11-15 08:21:00,
2013-11-15 02:26:00,43.7,28.1,29.93,North,1,0.0,0.0,54,0.00,CLR,,0.00,WeatherDisplay:10.37,2013-11-15 08:26:00,
2013-11-15 02:31:00,43.5,28.0,29.93,North,1,0.0,0.0,54,0.00,CLR,,0.00,WeatherDisplay:10.37,2013-11-15 08:31:00,
2013-11-15 02:36:00,43.2,27.6,29.92,North,1,0.0,0.0,54,0.00,CLR,,0.00,WeatherDisplay:10.37,2013-11-15 08:36:00,
2013-11-15 02:41:00,43.2,28.1,29.92,North,1,0.0,0.0,55,0.00,CLR,,0.00,WeatherDisplay:10.37,2013-11-15 08:41:00,
2013-11-15 02:46:00,43.2,28.1,29.92,North,1,0.0,0.0,55,0.00,CLR,,0.00,WeatherDisplay:10.37,2013-11-15 08:46:00,
2013-11-15 02:51:00,43.0,27.9,29.92,North,1,0.0,0.0,55,0.00,CLR,,0.00,WeatherDisplay:10.37,2013-11-15 08:51:00,
2013-11-15 02:56:00,43.0,28.3,29.92,North,1,0.0,0.0,56,0.00,CLR,,0.00,WeatherDisplay:10.37,2013-11-15 08:56:00,
2013-11-15 03:01:00,43.0,28.3,29.92,North,1,0.0,0.0,56,0.00,CLR,,0.00,WeatherDisplay:10.37,2013-11-15 09:01:00,
2013-11-15 03:06:00,42.6,28.0,29.92,North,1,0.0,0.0,56,0.00,CLR,,0.00,WeatherDisplay:10.37,2013-11-15 09:06:00,
2013-11-15 03:11:00,42.4,28.3,29.92,North,1,0.0,0.0,57,0.00,CLR,,0.00,WeatherDisplay:10.37,2013-11-15 09:11:00,
2013-11-15 03:16:00,42.3,28.1,29.91,North,1,0.0,0.0,57,0.00,CLR,,0.00,WeatherDisplay:10.37,2013-11-15 09:16:00,
2013-11-15 03:21:00,41.9,28.2,29.91,North,1,0.0,0.0,58,0.00,CLR,,0.00,WeatherDisplay:10.37,2013-11-15 09:21:00,
2013-11-15 03:26:00,41.7,28.0,29.91,North,1,0.0,0.0,58,0.00,CLR,,0.00,WeatherDisplay:10.37,2013-11-15 09:26:00,
2013-11-15 03:31:00,41.5,27.8,29.91,North,1,0.0,0.0,58,0.00,CLR,,0.00,WeatherDisplay:10.37,2013-11-15 09:31:00,
2013-11-15 03:36:00,41.4,27.7,29.91,North,1,0.0,0.0,58,0.00,CLR,,0.00,WeatherDisplay:10.37,2013-11-15 09:36:00,
2013-11-15 03:41:00,41.4,28.1,29.91,North,1,0.0,0.0,59,0.00,CLR,,0.00,WeatherDisplay:10.37,2013-11-15 09:41:00,
2013-11-15 03:46:00,41.2,27.9,29.91,North,1,0.0,0.0,59,0.00,CLR,,0.00,WeatherDisplay:10.37,2013-11-15 09:46:00,
2013-11-15 03:51:00,40.8,28.0,29.91,North,1,0.0,0.0,60,0.00,CLR,,0.00,WeatherDisplay:10.37,2013-11-15 09:51:00,
2013-11-15 03:56:00,40.8,28.0,29.91,North,1,0.0,0.0,60,0.00,CLR,,0.00,WeatherDisplay:10.37,2013-11-15 09:56:00,
2013-11-15 04:01:00,40.8,28.0,29.91,North,1,0.0,0.0,60,0.00,CLR,,0.00,WeatherDisplay:10.37,2013-11-15 10:01:00,
2013-11-15 04:06:00,40.8,28.0,29.91,North,1,0.0,0.0,60,0.00,CLR,,0.00,WeatherDisplay:10.37,2013-11-15 10:06:00,
2013-11-15 04:11:00,40.8,28.4,29.91,North,1,0.0,0.0,61,0.00,CLR,,0.00,WeatherDisplay:10.37,2013-11-15 10:11:00,
2013-11-15 04:16:00,40.8,28.4,29.91,North,1,0.0,0.0,61,0.00,CLR,,0.00,WeatherDisplay:10.37,2013-11-15 10:16:00,
2013-11-15 04:21:00,40.8,28.4,29.91,North,1,0.0,0.0,61,0.00,CLR,,0.00,WeatherDisplay:10.37,2013-11-15 10:21:00,
2013-11-15 04:26:00,40.8,28.4,29.91,North,1,0.0,0.0,61,0.00,CLR,,0.00,WeatherDisplay:10.37,2013-11-15 10:26:00,
2013-11-15 04:31:00,40.8,28.4,29.91,North,1,0.0,0.0,61,0.00,CLR,,0.00,WeatherDisplay:10.37,2013-11-15 10:31:00,
2013-11-15 04:36:00,40.8,28.4,29.91,North,1,0.0,0.0,61,0.00,CLR,,0.00,WeatherDisplay:10.37,2013-11-15 10:36:00,
2013-11-15 04:41:00,40.8,28.8,29.92,North,1,0.0,0.0,62,0.00,CLR,,0.00,WeatherDisplay:10.37,2013-11-15 10:41:00,
2013-11-15 04:46:00,40.8,28.8,29.91,North,1,0.0,0.0,62,0.00,CLR,,0.00,WeatherDisplay:10.37,2013-11-15 10:46:00,
2013-11-15 04:51:00,40.8,28.8,29.91,North,1,0.0,0.0,62,0.00,CLR,,0.00,WeatherDisplay:10.37,2013-11-15 10:51:00,
2013-11-15 04:56:00,40.8,28.8,29.91,North,1,0.0,0.0,62,0.00,CLR,,0.00,WeatherDisplay:10.37,2013-11-15 10:56:00,
2013-11-15 05:01:00,40.8,28.8,29.91,North,1,0.0,0.0,62,0.00,CLR,,0.00,WeatherDisplay:10.37,2013-11-15 11:01:00,
2013-11-15 05:06:00,41.2,29.1,29.91,North,1,0.0,0.0,62,0.00,CLR,,0.00,WeatherDisplay:10.37,2013-11-15 11:06:00,
2013-11-15 05:11:00,41.2,29.1,29.91,North,1,0.0,0.0,62,0.00,CLR,,0.00,WeatherDisplay:10.37,2013-11-15 11:11:00,
2013-11-15 05:16:00,41.2,29.1,29.91,North,1,0.0,0.0,62,0.00,CLR,,0.00,WeatherDisplay:10.37,2013-11-15 11:16:00,
2013-11-15 05:21:00,41.4,29.3,29.91,North,1,0.0,0.0,62,0.00,CLR,,0.00,WeatherDisplay:10.37,2013-11-15 11:21:00,
2013-11-15 05:26:00,41.4,29.3,29.91,North,1,0.0,0.0,62,0.00,CLR,,0.00,WeatherDisplay:10.37,2013-11-15 11:26:00,
2013-11-15 05:31:00,41.4,29.3,29.91,North,1,0.0,0.0,62,0.00,CLR,,0.00,WeatherDisplay:10.37,2013-11-15 11:31:00,
2013-11-15 05:36:00,41.4,29.3,29.91,North,1,0.0,0.0,62,0.00,CLR,,0.00,WeatherDisplay:10.37,2013-11-15 11:36:00,
2013-11-15 05:41:00,41.4,29.7,29.91,North,1,0.0,0.0,63,0.00,CLR,,0.00,WeatherDisplay:10.37,2013-11-15 11:41:00,
2013-11-15 05:46:00,41.5,29.9,29.91,North,1,0.0,0.0,63,0.00,CLR,,0.00,WeatherDisplay:10.37,2013-11-15 11:46:00,
2013-11-15 05:51:00,41.7,30.0,29.91,North,1,0.0,0.0,63,0.00,CLR,,0.00,WeatherDisplay:10.37,2013-11-15 11:51:00,
2013-11-15 05:56:00,41.7,30.0,29.91,North,1,0.0,0.0,63,0.00,CLR,,0.00,WeatherDisplay:10.37,2013-11-15 11:56:00,
2013-11-15 06:01:00,41.7,30.0,29.91,North,1,0.0,0.0,63,0.00,CLR,,0.00,WeatherDisplay:10.37,2013-11-15 12:01:00,
2013-11-15 06:06:00,41.7,30.0,29.91,North,1,0.0,0.0,63,0.00,CLR,,0.00,WeatherDisplay:10.37,2013-11-15 12:06:00,
2013-11-15 06:11:00,41.7,30.0,29.92,North,1,0.0,0.0,63,0.00,CLR,,0.00,WeatherDisplay:10.37,2013-11-15 12:11:00,
2013-11-15 06:16:00,41.7,30.0,29.91,North,1,0.0,0.0,63,0.00,CLR,,0.00,WeatherDisplay:10.37,2013-11-15 12:16:00,
2013-11-15 06:21:00,41.7,30.0,29.91,North,1,0.0,0.0,63,0.00,CLR,,0.00,WeatherDisplay:10.37,2013-11-15 12:21:00,
2013-11-15 06:26:00,41.7,30.0,29.91,North,1,0.0,0.0,63,0.00,CLR,,0.00,WeatherDisplay:10.37,2013-11-15 12:26:00,
2013-11-15 06:31:00,41.9,30.2,29.91,North,1,0.0,0.0,63,0.00,CLR,,0.00,WeatherDisplay:10.37,2013-11-15 12:31:00,
2013-11-15 06:36:00,41.9,30.2,29.91,North,1,0.0,0.0,63,0.00,CLR,,0.00,WeatherDisplay:10.37,2013-11-15 12:36:00,
2013-11-15 06:41:00,41.9,30.2,29.92,North,1,0.0,0.0,63,0.00,CLR,,0.00,WeatherDisplay:10.37,2013-11-15 12:41:00,
2013-11-15 06:46:00,41.9,30.2,29.91,North,1,0.0,0.0,63,0.00,CLR,,0.00,WeatherDisplay:10.37,2013-11-15 12:46:00,
2013-11-15 06:51:00,41.9,30.2,29.91,North,1,0.0,0.0,63,0.00,CLR,,0.00,WeatherDisplay:10.37,2013-11-15 12:51:00,
2013-11-15 06:56:00,41.9,30.2,29.91,North,1,0.0,0.0,63,0.00,CLR,,0.00,WeatherDisplay:10.37,2013-11-15 12:56:00,
2013-11-15 07:02:00,41.9,30.2,29.91,North,1,0.0,0.0,63,0.00,CLR,,0.00,WeatherDisplay:10.37,2013-11-15 13:02:00,
2013-11-15 07:07:00,41.9,30.2,29.92,North,1,0.0,0.0,63,0.00,CLR,,0.00,WeatherDisplay:10.37,2013-11-15 13:07:00,
2013-11-15 07:12:00,41.9,30.2,29.92,North,1,0.0,0.0,63,0.00,CLR,,0.00,WeatherDisplay:10.37,2013-11-15 13:12:00,
2013-11-15 07:17:00,41.9,30.2,29.92,North,1,0.0,0.0,63,0.00,CLR,,0.00,WeatherDisplay:10.37,2013-11-15 13:17:00,
2013-11-15 07:22:00,42.1,30.4,29.92,North,1,0.0,0.0,63,0.00,CLR,,0.00,WeatherDisplay:10.37,2013-11-15 13:22:00,
2013-11-15 07:27:00,42.1,30.4,29.92,North,1,0.0,0.0,63,0.00,CLR,,0.00,WeatherDisplay:10.37,2013-11-15 13:27:00,
2013-11-15 07:32:00,42.1,30.8,29.92,North,1,0.0,0.0,64,0.00,CLR,,0.00,WeatherDisplay:10.37,2013-11-15 13:32:00,
2013-11-15 07:37:00,42.3,30.9,29.92,North,1,0.0,0.0,64,0.00,CLR,,0.00,WeatherDisplay:10.37,2013-11-15 13:37:00,
2013-11-15 07:42:00,42.3,30.9,29.92,North,1,0.0,0.0,64,0.00,CLR,,0.00,WeatherDisplay:10.37,2013-11-15 13:42:00,
2013-11-15 07:47:00,42.3,30.9,29.93,North,1,0.0,0.0,64,0.00,CLR,,0.00,WeatherDisplay:10.37,2013-11-15 13:47:00,
2013-11-15 07:52:00,42.3,30.9,29.92,North,1,0.0,0.0,64,0.00,CLR,,0.00,WeatherDisplay:10.37,2013-11-15 13:52:00,
2013-11-15 07:57:00,42.3,30.9,29.92,North,1,0.0,0.0,64,0.00,CLR,,0.00,WeatherDisplay:10.37,2013-11-15 13:57:00,
2013-11-15 08:02:00,42.4,31.1,29.92,North,1,0.0,0.0,64,0.00,CLR,,0.00,WeatherDisplay:10.37,2013-11-15 14:02:00,
2013-11-15 08:07:00,42.4,31.5,29.92,North,1,0.0,0.0,65,0.00,CLR,,0.00,WeatherDisplay:10.37,2013-11-15 14:07:00,
2013-11-15 08:12:00,42.6,31.7,29.92,North,1,0.0,0.0,65,0.00,CLR,,0.00,WeatherDisplay:10.37,2013-11-15 14:12:00,
2013-11-15 08:17:00,42.8,31.8,29.92,North,1,0.0,0.0,65,0.00,CLR,,0.00,WeatherDisplay:10.37,2013-11-15 14:17:00,
2013-11-15 08:22:00,43.0,32.0,29.92,North,1,0.0,0.0,65,0.00,CLR,,0.00,WeatherDisplay:10.37,2013-11-15 14:22:00,
2013-11-15 08:27:00,43.0,32.0,29.92,North,1,0.0,0.0,65,0.00,CLR,,0.00,WeatherDisplay:10.37,2013-11-15 14:27:00,
2013-11-15 08:32:00,43.2,32.2,29.91,North,1,0.0,0.0,65,0.00,CLR,,0.00,WeatherDisplay:10.37,2013-11-15 14:32:00,
2013-11-15 08:37:00,43.2,32.6,29.92,North,1,0.0,0.0,66,0.00,CLR,,0.00,WeatherDisplay:10.37,2013-11-15 14:37:00,
2013-11-15 08:42:00,43.5,32.9,29.91,North,1,0.0,0.0,66,0.00,CLR,,0.00,WeatherDisplay:10.37,2013-11-15 14:42:00,
2013-11-15 08:47:00,43.7,33.1,29.92,North,1,0.0,0.0,66,0.00,CLR,,0.00,WeatherDisplay:10.37,2013-11-15 14:47:00,
2013-11-15 08:52:00,43.7,33.1,29.92,North,1,0.0,0.0,66,0.00,CLR,,0.00,WeatherDisplay:10.37,2013-11-15 14:52:00,
2013-11-15 08:57:00,43.9,33.3,29.92,North,1,0.0,0.0,66,0.00,CLR,,0.00,WeatherDisplay:10.37,2013-11-15 14:57:00,
2013-11-15 09:02:00,44.1,33.4,29.92,North,1,0.0,0.0,66,0.00,CLR,,0.00,WeatherDisplay:10.37,2013-11-15 15:02:00,
2013-11-15 09:07:00,44.2,33.6,29.92,North,1,0.0,0.0,66,0.00,CLR,,0.00,WeatherDisplay:10.37,2013-11-15 15:07:00,
2013-11-15 09:12:00,44.6,33.9,29.92,North,1,0.0,0.0,66,0.00,CLR,,0.00,WeatherDisplay:10.37,2013-11-15 15:12:00,
2013-11-15 09:17:00,45.0,34.3,29.92,North,1,0.0,0.0,66,0.00,CLR,,0.00,WeatherDisplay:10.37,2013-11-15 15:17:00,
2013-11-15 09:22:00,45.0,34.3,29.92,North,1,0.0,0.0,66,0.00,CLR,,0.00,WeatherDisplay:10.37,2013-11-15 15:22:00,
2013-11-15 09:27:00,45.3,34.6,29.92,North,1,0.0,0.0,66,0.00,CLR,,0.00,WeatherDisplay:10.37,2013-11-15 15:27:00,
2013-11-15 09:32:00,45.5,34.8,29.92,North,1,0.0,0.0,66,0.00,CLR,,0.00,WeatherDisplay:10.37,2013-11-15 15:32:00,
2013-11-15 09:37:00,45.7,35.0,29.92,North,1,0.0,0.0,66,0.00,CLR,,0.00,WeatherDisplay:10.37,2013-11-15 15:37:00,
2013-11-15 09:42:00,46.2,35.5,29.92,North,1,0.0,0.0,66,0.00,CLR,,0.00,WeatherDisplay:10.37,2013-11-15 15:42:00,
2013-11-15 09:47:00,46.6,35.4,29.91,North,1,0.0,0.0,65,0.00,CLR,,0.00,WeatherDisplay:10.37,2013-11-15 15:47:00,
2013-11-15 09:52:00,46.8,35.6,29.91,North,1,0.0,0.0,65,0.00,CLR,,0.00,WeatherDisplay:10.37,2013-11-15 15:52:00,
2013-11-15 09:57:00,47.5,36.3,29.91,North,1,0.0,0.0,65,0.00,CLR,,0.00,WeatherDisplay:10.37,2013-11-15 15:57:00,
2013-11-15 10:02:00,48.4,37.2,29.90,North,1,0.0,0.0,65,0.00,CLR,,0.00,WeatherDisplay:10.37,2013-11-15 16:02:00,
2013-11-15 10:07:00,49.8,37.7,29.91,North,1,0.0,0.0,63,0.00,CLR,,0.00,WeatherDisplay:10.37,2013-11-15 16:07:00,
2013-11-15 10:12:00,50.7,38.2,29.91,North,1,0.0,0.0,62,0.00,CLR,,0.00,WeatherDisplay:10.37,2013-11-15 16:12:00,
2013-11-15 10:17:00,52.0,38.9,29.91,North,1,0.0,0.0,61,0.00,CLR,,0.00,WeatherDisplay:10.37,2013-11-15 16:17:00,
2013-11-15 10:22:00,52.5,39.0,29.91,North,1,0.0,0.0,60,0.00,CLR,,0.00,WeatherDisplay:10.37,2013-11-15 16:22:00,
2013-11-15 10:27:00,52.9,38.9,29.91,North,1,0.0,0.0,59,0.00,CLR,,0.00,WeatherDisplay:10.37,2013-11-15 16:27:00,
2013-11-15 10:32:00,53.6,39.6,29.90,North,1,0.0,0.0,59,0.00,CLR,,0.00,WeatherDisplay:10.37,2013-11-15 16:32:00,
2013-11-15 10:37:00,54.3,39.8,29.90,North,1,0.0,0.0,58,0.00,CLR,,0.00,WeatherDisplay:10.37,2013-11-15 16:37:00,
2013-11-15 10:42:00,54.7,39.7,29.90,North,1,0.0,0.0,57,0.00,CLR,,0.00,WeatherDisplay:10.37,2013-11-15 16:42:00,
2013-11-15 10:47:00,55.2,39.8,29.90,North,1,0.0,0.0,56,0.00,CLR,,0.00,WeatherDisplay:10.37,2013-11-15 16:47:00,
2013-11-15 10:52:00,55.6,40.1,29.90,North,1,0.0,0.0,56,0.00,CLR,,0.00,WeatherDisplay:10.37,2013-11-15 16:52:00,
2013-11-15 10:57:00,55.8,39.8,29.90,North,1,0.0,0.0,55,0.00,CLR,,0.00,WeatherDisplay:10.37,2013-11-15 16:57:00,
2013-11-15 11:02:00,56.5,40.5,29.90,North,1,0.0,0.0,55,0.00,CLR,,0.00,WeatherDisplay:10.37,2013-11-15 17:02:00,
2013-11-15 11:07:00,56.8,40.8,29.90,North,1,0.0,0.0,55,0.00,CLR,,0.00,WeatherDisplay:10.37,2013-11-15 17:07:00,
2013-11-15 11:12:00,57.0,40.5,29.90,North,1,0.0,0.0,54,0.00,CLR,,0.00,WeatherDisplay:10.37,2013-11-15 17:12:00,
2013-11-15 11:17:00,57.6,41.0,29.89,North,1,0.0,0.0,54,0.00,CLR,,0.00,WeatherDisplay:10.37,2013-11-15 17:17:00,
2013-11-15 11:22:00,57.9,40.9,29.89,North,1,0.0,0.0,53,0.00,CLR,,0.00,WeatherDisplay:10.37,2013-11-15 17:22:00,
2013-11-15 11:27:00,58.3,41.2,29.89,North,1,0.0,0.0,53,0.00,CLR,,0.00,WeatherDisplay:10.37,2013-11-15 17:27:00,
2013-11-15 11:32:00,58.5,40.9,29.88,North,1,0.0,0.0,52,0.00,CLR,,0.00,WeatherDisplay:10.37,2013-11-15 17:32:00,
2013-11-15 11:37:00,58.5,40.9,29.88,North,1,0.0,0.0,52,0.00,CLR,,0.00,WeatherDisplay:10.37,2013-11-15 17:37:00,
2013-11-15 11:42:00,58.8,41.2,29.88,North,1,0.0,0.0,52,0.00,CLR,,0.00,WeatherDisplay:10.37,2013-11-15 17:42:00,
2013-11-15 11:47:00,59.2,41.1,29.87,North,1,0.0,0.0,51,0.00,CLR,,0.00,WeatherDisplay:10.37,2013-11-15 17:47:00,
2013-11-15 11:52:00,59.2,41.1,29.87,North,1,0.0,0.0,51,0.00,CLR,,0.00,WeatherDisplay:10.37,2013-11-15 17:52:00,
2013-11-15 11:57:00,59.4,40.7,29.86,North,1,0.0,0.0,50,0.00,CLR,,0.00,WeatherDisplay:10.37,2013-11-15 17:57:00,
2013-11-15 12:02:00,59.2,40.5,29.86,North,1,0.0,0.0,50,0.00,CLR,,0.00,WeatherDisplay:10.37,2013-11-15 18:02:00,
2013-11-15 12:07:00,58.8,40.7,29.86,North,1,0.0,0.0,51,0.00,CLR,,0.00,WeatherDisplay:10.37,2013-11-15 18:07:00,
2013-11-15 12:12:00,58.8,40.7,29.86,North,1,0.0,0.0,51,0.00,CLR,,0.00,WeatherDisplay:10.37,2013-11-15 18:12:00,
2013-11-15 12:17:00,58.8,40.2,29.86,North,1,0.0,0.0,50,0.00,CLR,,0.00,WeatherDisplay:10.37,2013-11-15 18:17:00,
2013-11-15 12:22:00,58.6,40.6,29.85,North,1,0.0,0.0,51,0.00,CLR,,0.00,WeatherDisplay:10.37,2013-11-15 18:22:00,
2013-11-15 12:26:00,58.5,39.9,29.85,North,1,0.0,0.0,50,0.00,CLR,,0.00,WeatherDisplay:10.37,2013-11-15 18:26:00,
2013-11-15 12:31:00,58.5,40.4,29.85,North,1,0.0,0.0,51,0.00,CLR,,0.00,WeatherDisplay:10.37,2013-11-15 18:31:00,
2013-11-15 12:36:00,58.8,40.7,29.86,North,1,0.0,0.0,51,0.00,CLR,,0.00,WeatherDisplay:10.37,2013-11-15 18:36:00,
2013-11-15 12:41:00,58.8,40.2,29.85,North,1,0.0,0.0,50,0.00,CLR,,0.00,WeatherDisplay:10.37,2013-11-15 18:41:00,
2013-11-15 12:46:00,58.3,39.7,29.84,North,1,0.0,0.0,50,0.00,CLR,,0.00,WeatherDisplay:10.37,2013-11-15 18:46:00,
2013-11-15 12:51:00,57.9,39.9,29.84,North,1,0.0,0.0,51,0.00,CLR,,0.00,WeatherDisplay:10.37,2013-11-15 18:51:00,
2013-11-15 12:56:00,57.9,39.9,29.84,North,1,0.0,0.0,51,0.00,CLR,,0.00,WeatherDisplay:10.37,2013-11-15 18:56:00,
2013-11-15 13:01:00,57.6,39.6,29.84,North,1,0.0,0.0,51,0.00,CLR,,0.00,WeatherDisplay:10.37,2013-11-15 19:01:00,
2013-11-15 13:06:00,57.6,40.1,29.83,North,1,0.0,0.0,52,0.00,CLR,,0.00,WeatherDisplay:10.37,2013-11-15 19:06:00,
2013-11-15 13:11:00,57.6,40.1,29.83,North,1,0.0,0.0,52,0.00,CLR,,0.00,WeatherDisplay:10.37,2013-11-15 19:11:00,
2013-11-15 13:16:00,57.6,40.1,29.82,North,1,0.0,0.0,52,0.00,CLR,,0.00,WeatherDisplay:10.37,2013-11-15 19:16:00,
2013-11-15 13:21:00,57.6,40.1,29.82,North,1,0.0,0.0,52,0.00,CLR,,0.00,WeatherDisplay:10.37,2013-11-15 19:21:00,
2013-11-15 13:26:00,57.7,40.2,29.83,North,1,0.0,0.0,52,0.00,CLR,,0.00,WeatherDisplay:10.37,2013-11-15 19:26:00,
2013-11-15 13:31:00,57.6,40.1,29.82,North,1,0.0,0.0,52,0.00,CLR,,0.00,WeatherDisplay:10.37,2013-11-15 19:31:00,
2013-11-15 13:36:00,57.6,40.1,29.83,North,1,0.0,0.0,52,0.00,CLR,,0.00,WeatherDisplay:10.37,2013-11-15 19:36:00,
2013-11-15 13:41:00,57.6,40.1,29.83,North,1,0.0,0.0,52,0.00,CLR,,0.00,WeatherDisplay:10.37,2013-11-15 19:41:00,
2013-11-15 13:46:00,57.6,40.1,29.83,North,1,0.0,0.0,52,0.00,CLR,,0.00,WeatherDisplay:10.37,2013-11-15 19:46:00,
2013-11-15 13:51:00,57.6,40.1,29.83,North,1,0.0,0.0,52,0.00,CLR,,0.00,WeatherDisplay:10.37,2013-11-15 19:51:00,
2013-11-15 13:56:00,57.6,40.5,29.83,North,1,0.0,0.0,53,0.00,CLR,,0.00,WeatherDisplay:10.37,2013-11-15 19:56:00,
2013-11-15 14:01:00,57.6,40.5,29.82,North,1,0.0,0.0,53,0.00,CLR,,0.00,WeatherDisplay:10.37,2013-11-15 20:01:00,
2013-11-15 14:06:00,57.6,40.1,29.82,North,1,0.0,0.0,52,0.00,CLR,,0.00,WeatherDisplay:10.37,2013-11-15 20:06:00,
2013-11-15 14:11:00,57.6,40.5,29.81,North,1,0.0,0.0,53,0.00,CLR,,0.00,WeatherDisplay:10.37,2013-11-15 20:11:00,
2013-11-15 14:17:00,57.6,40.5,29.81,North,1,0.0,0.0,53,0.00,CLR,,0.00,WeatherDisplay:10.37,2013-11-15 20:17:00,
2013-11-15 14:22:00,57.6,40.5,29.81,North,1,0.0,0.0,53,0.00,CLR,,0.00,WeatherDisplay:10.37,2013-11-15 20:22:00,
2013-11-15 14:27:00,57.6,40.5,29.81,North,1,0.0,0.0,53,0.00,CLR,,0.00,WeatherDisplay:10.37,2013-11-15 20:27:00,
2013-11-15 14:32:00,57.6,40.5,29.81,North,1,0.0,0.0,53,0.00,CLR,,0.00,WeatherDisplay:10.37,2013-11-15 20:32:00,
2013-11-15 14:37:00,57.7,40.7,29.80,North,1,0.0,0.0,53,0.00,CLR,,0.00,WeatherDisplay:10.37,2013-11-15 20:37:00,
2013-11-15 14:42:00,57.6,40.5,29.80,North,1,0.0,0.0,53,0.00,CLR,,0.00,WeatherDisplay:10.37,2013-11-15 20:42:00,
2013-11-15 14:47:00,57.6,40.5,29.80,North,1,0.0,0.0,53,0.00,CLR,,0.00,WeatherDisplay:10.37,2013-11-15 20:47:00,
2013-11-15 14:52:00,57.6,40.5,29.80,North,1,0.0,0.0,53,0.00,CLR,,0.00,WeatherDisplay:10.37,2013-11-15 20:52:00,
2013-11-15 14:57:00,57.6,40.5,29.80,North,1,0.0,0.0,53,0.00,CLR,,0.00,WeatherDisplay:10.37,2013-11-15 20:57:00,
2013-11-15 15:02:00,57.6,41.0,29.79,North,1,0.0,0.0,54,0.00,CLR,,0.00,WeatherDisplay:10.37,2013-11-15 21:02:00,
2013-11-15 15:07:00,57.6,41.0,29.79,North,1,0.0,0.0,54,0.00,CLR,,0.00,WeatherDisplay:10.37,2013-11-15 21:07:00,
2013-11-15 15:12:00,57.6,41.0,29.79,North,1,0.0,0.0,54,0.00,CLR,,0.00,WeatherDisplay:10.37,2013-11-15 21:12:00,
2013-11-15 15:17:00,57.6,41.0,29.79,North,1,0.0,0.0,54,0.00,CLR,,0.00,WeatherDisplay:10.37,2013-11-15 21:17:00,
2013-11-15 15:22:00,57.6,41.0,29.79,North,1,0.0,0.0,54,0.00,CLR,,0.00,WeatherDisplay:10.37,2013-11-15 21:22:00,
2013-11-15 15:27:00,57.6,41.0,29.79,North,1,0.0,0.0,54,0.00,CLR,,0.00,WeatherDisplay:10.37,2013-11-15 21:27:00,
2013-11-15 15:32:00,57.6,41.0,29.79,North,1,0.0,0.0,54,0.00,CLR,,0.00,WeatherDisplay:10.37,2013-11-15 21:32:00,
2013-11-15 15:37:00,57.6,41.0,29.79,North,1,0.0,0.0,54,0.00,CLR,,0.00,WeatherDisplay:10.37,2013-11-15 21:37:00,
2013-11-15 15:42:00,57.6,41.0,29.78,North,1,0.0,0.0,54,0.00,CLR,,0.00,WeatherDisplay:10.37,2013-11-15 21:42:00,
2013-11-15 15:47:00,57.6,41.0,29.78,North,1,0.0,0.0,54,0.00,CLR,,0.00,WeatherDisplay:10.37,2013-11-15 21:47:00,
2013-11-15 15:52:00,57.4,41.3,29.78,North,1,0.0,0.0,55,0.00,CLR,,0.00,WeatherDisplay:10.37,2013-11-15 21:52:00,
2013-11-15 15:57:00,57.4,41.3,29.78,North,1,0.0,0.0,55,0.00,CLR,,0.00,WeatherDisplay:10.37,2013-11-15 21:57:00,
2013-11-15 16:02:00,57.0,41.0,29.77,North,1,0.0,0.0,55,0.00,CLR,,0.00,WeatherDisplay:10.37,2013-11-15 22:02:00,
2013-11-15 16:07:00,57.0,41.0,29.77,North,1,0.0,0.0,55,0.00,CLR,,0.00,WeatherDisplay:10.37,2013-11-15 22:07:00,
2013-11-15 16:12:00,56.7,41.1,29.76,North,1,0.0,0.0,56,0.00,CLR,,0.00,WeatherDisplay:10.37,2013-11-15 22:12:00,
2013-11-15 16:17:00,56.7,41.1,29.77,North,1,0.0,0.0,56,0.00,CLR,,0.00,WeatherDisplay:10.37,2013-11-15 22:17:00,
2013-11-15 16:22:00,56.3,40.8,29.77,North,1,0.0,0.0,56,0.00,CLR,,0.00,WeatherDisplay:10.37,2013-11-15 22:22:00,
2013-11-15 16:27:00,55.9,40.5,29.77,North,1,0.0,0.0,56,0.00,CLR,,0.00,WeatherDisplay:10.37,2013-11-15 22:27:00,
2013-11-15 16:32:00,55.6,40.6,29.77,North,1,0.0,0.0,57,0.00,CLR,,0.00,WeatherDisplay:10.37,2013-11-15 22:32:00,
2013-11-15 16:37:00,55.0,40.1,29.77,North,1,0.0,0.0,57,0.00,CLR,,0.00,WeatherDisplay:10.37,2013-11-15 22:37:00,
2013-11-15 16:42:00,54.7,40.2,29.77,North,1,0.0,0.0,58,0.00,CLR,,0.00,WeatherDisplay:10.37,2013-11-15 22:42:00,
2013-11-15 16:47:00,54.3,39.8,29.77,North,1,0.0,0.0,58,0.00,CLR,,0.00,WeatherDisplay:10.37,2013-11-15 22:47:00,
2013-11-15 16:52:00,54.1,40.1,29.76,North,1,0.0,0.0,59,0.00,CLR,,0.00,WeatherDisplay:10.37,2013-11-15 22:52:00,
2013-11-15 16:57:00,54.0,40.4,29.76,North,1,0.0,0.0,60,0.00,CLR,,0.00,WeatherDisplay:10.37,2013-11-15 22:57:00,
2013-11-15 17:02:00,53.6,40.0,29.76,North,1,0.0,0.0,60,0.00,CLR,,0.00,WeatherDisplay:10.37,2013-11-15 23:02:00,
2013-11-15 17:07:00,53.4,39.9,29.76,North,1,0.0,0.0,60,0.00,CLR,,0.00,WeatherDisplay:10.37,2013-11-15 23:07:00,
2013-11-15 17:12:00,53.1,39.5,29.76,North,1,0.0,0.0,60,0.00,CLR,,0.00,WeatherDisplay:10.37,2013-11-15 23:12:00,
2013-11-15 17:17:00,52.9,39.8,29.77,North,1,0.0,0.0,61,0.00,CLR,,0.00,WeatherDisplay:10.37,2013-11-15 23:17:00,
2013-11-15 17:22:00,52.7,39.6,29.77,North,1,0.0,0.0,61,0.00,CLR,,0.00,WeatherDisplay:10.37,2013-11-15 23:22:00,
2013-11-15 17:27:00,52.5,39.9,29.76,North,1,0.0,0.0,62,0.00,CLR,,0.00,WeatherDisplay:10.37,2013-11-15 23:27:00,
2013-11-15 17:32:00,52.2,39.5,29.76,North,1,0.0,0.0,62,0.00,CLR,,0.00,WeatherDisplay:10.37,2013-11-15 23:32:00,
2013-11-15 17:37:00,52.0,39.4,29.76,North,1,0.0,0.0,62,0.00,CLR,,0.00,WeatherDisplay:10.37,2013-11-15 23:37:00,
2013-11-15 17:42:00,51.6,39.4,29.76,North,1,0.0,0.0,63,0.00,CLR,,0.00,WeatherDisplay:10.37,2013-11-15 23:42:00,
2013-11-15 17:47:00,51.6,39.4,29.76,North,1,0.0,0.0,63,0.00,CLR,,0.00,WeatherDisplay:10.37,2013-11-15 23:47:00,
2013-11-15 17:52:00,51.3,39.1,29.76,North,1,0.0,0.0,63,0.00,CLR,,0.00,WeatherDisplay:10.37,2013-11-15 23:52:00,
2013-11-15 17:57:00,51.1,38.9,29.75,North,1,0.0,0.0,63,0.00,CLR,,0.00,WeatherDisplay:10.37,2013-11-15 23:57:00,
2013-11-15 18:02:00,51.1,39.3,29.76,North,1,0.0,0.0,64,0.00,CLR,,0.00,WeatherDisplay:10.37,2013-11-16 00:02:00,
2013-11-15 18:07:00,51.1,39.3,29.76,North,1,0.0,0.0,64,0.00,CLR,,0.00,WeatherDisplay:10.37,2013-11-16 00:07:00,
2013-11-15 18:12:00,50.9,39.5,29.76,North,1,0.0,0.0,65,0.00,CLR,,0.00,WeatherDisplay:10.37,2013-11-16 00:12:00,
2013-11-15 18:17:00,50.7,39.4,29.75,North,1,0.0,0.0,65,0.00,CLR,,0.00,WeatherDisplay:10.37,2013-11-16 00:17:00,
2013-11-15 18:22:00,50.7,39.4,29.75,North,1,0.0,0.0,65,0.00,CLR,,0.00,WeatherDisplay:10.37,2013-11-16 00:22:00,
2013-11-15 18:27:00,50.4,39.0,29.75,North,1,0.0,0.0,65,0.00,CLR,,0.00,WeatherDisplay:10.37,2013-11-16 00:27:00,
2013-11-15 18:32:00,50.4,39.4,29.74,North,1,0.0,0.0,66,0.00,CLR,,0.00,WeatherDisplay:10.37,2013-11-16 00:32:00,
2013-11-15 18:37:00,50.4,39.4,29.74,North,1,0.0,0.0,66,0.00,CLR,,0.00,WeatherDisplay:10.37,2013-11-16 00:37:00,
2013-11-15 18:42:00,50.4,39.4,29.75,North,1,0.0,0.0,66,0.00,CLR,,0.00,WeatherDisplay:10.37,2013-11-16 00:42:00,
2013-11-15 18:47:00,50.2,39.3,29.74,North,1,0.0,0.0,66,0.00,CLR,,0.00,WeatherDisplay:10.37,2013-11-16 00:47:00,
2013-11-15 18:52:00,50.2,39.3,29.74,North,1,0.0,0.0,66,0.00,CLR,,0.00,WeatherDisplay:10.37,2013-11-16 00:52:00,
2013-11-15 18:57:00,49.8,39.3,29.74,North,1,0.0,0.0,67,0.00,CLR,,0.00,WeatherDisplay:10.37,2013-11-16 00:57:00,
2013-11-15 19:10:00,49.5,39.0,29.74,North,1,0.0,0.0,67,0.00,CLR,,0.00,WeatherDisplay:10.37,2013-11-16 01:10:00,
2013-11-15 19:15:00,49.5,39.3,29.75,North,1,0.0,0.0,68,0.00,CLR,,0.00,WeatherDisplay:10.37,2013-11-16 01:15:00,
2013-11-15 19:20:00,49.3,39.2,29.75,North,1,0.0,0.0,68,0.00,CLR,,0.00,WeatherDisplay:10.37,2013-11-16 01:20:00,
2013-11-15 19:25:00,49.3,39.2,29.75,North,1,0.0,0.0,68,0.00,CLR,,0.00,WeatherDisplay:10.37,2013-11-16 01:25:00,
2013-11-15 19:30:00,49.1,39.0,29.75,North,1,0.0,0.0,68,0.00,CLR,,0.00,WeatherDisplay:10.37,2013-11-16 01:30:00,
2013-11-15 19:35:00,49.1,39.0,29.75,North,1,0.0,0.0,68,0.00,CLR,,0.00,WeatherDisplay:10.37,2013-11-16 01:35:00,
2013-11-15 19:40:00,48.9,39.2,29.74,North,1,0.0,0.0,69,0.00,CLR,,0.00,WeatherDisplay:10.37,2013-11-16 01:40:00,
2013-11-15 19:45:00,48.9,39.2,29.75,North,1,0.0,0.0,69,0.00,CLR,,0.00,WeatherDisplay:10.37,2013-11-16 01:45:00,
2013-11-15 19:50:00,48.6,38.8,29.75,North,1,0.0,0.0,69,0.00,CLR,,0.00,WeatherDisplay:10.37,2013-11-16 01:50:00,
2013-11-15 19:55:00,48.6,38.8,29.74,North,1,0.0,0.0,69,0.00,CLR,,0.00,WeatherDisplay:10.37,2013-11-16 01:55:00,
2013-11-15 20:00:00,48.6,39.2,29.75,North,1,0.0,0.0,70,0.00,CLR,,0.00,WeatherDisplay:10.37,2013-11-16 02:00:00,
2013-11-15 20:05:00,48.6,39.2,29.74,North,1,0.0,0.0,70,0.00,CLR,,0.00,WeatherDisplay:10.37,2013-11-16 02:05:00,
2013-11-15 20:10:00,48.6,39.2,29.74,North,1,0.0,0.0,70,0.00,CLR,,0.00,WeatherDisplay:10.37,2013-11-16 02:10:00,
2013-11-15 20:15:00,48.6,39.2,29.74,North,1,0.0,0.0,70,0.00,CLR,,0.00,WeatherDisplay:10.37,2013-11-16 02:15:00,
2013-11-15 20:20:00,48.4,39.0,29.74,North,1,0.0,0.0,70,0.00,CLR,,0.00,WeatherDisplay:10.37,2013-11-16 02:20:00,
2013-11-15 20:25:00,48.4,39.4,29.74,North,1,0.0,0.0,71,0.00,CLR,,0.00,WeatherDisplay:10.37,2013-11-16 02:25:00,
2013-11-15 20:30:00,48.4,39.4,29.74,North,1,0.0,0.0,71,0.00,CLR,,0.00,WeatherDisplay:10.37,2013-11-16 02:30:00,
2013-11-15 20:35:00,48.4,39.4,29.73,North,1,0.0,0.0,71,0.00,CLR,,0.00,WeatherDisplay:10.37,2013-11-16 02:35:00,
2013-11-15 20:40:00,48.0,39.1,29.73,North,1,0.0,0.0,71,0.00,CLR,,0.00,WeatherDisplay:10.37,2013-11-16 02:40:00,
2013-11-15 20:45:00,48.0,39.1,29.73,North,1,0.0,0.0,71,0.00,CLR,,0.00,WeatherDisplay:10.37,2013-11-16 02:45:00,
2013-11-15 20:50:00,48.0,39.4,29.73,North,1,0.0,0.0,72,0.00,CLR,,0.00,WeatherDisplay:10.37,2013-11-16 02:50:00,
2013-11-15 20:55:00,48.0,39.4,29.73,North,1,0.0,0.0,72,0.00,CLR,,0.00,WeatherDisplay:10.37,2013-11-16 02:55:00,
2013-11-15 21:00:00,48.0,39.4,29.73,North,1,0.0,0.0,72,0.00,CLR,,0.00,WeatherDisplay:10.37,2013-11-16 03:00:00,
2013-11-15 21:05:00,48.4,39.8,29.73,North,1,0.0,0.0,72,0.00,CLR,,0.00,WeatherDisplay:10.37,2013-11-16 03:05:00,
2013-11-15 21:10:00,48.4,40.1,29.72,North,1,0.0,0.0,73,0.00,CLR,,0.00,WeatherDisplay:10.37,2013-11-16 03:10:00,
2013-11-15 21:15:00,48.6,39.9,29.72,North,1,0.0,0.0,72,0.00,CLR,,0.00,WeatherDisplay:10.37,2013-11-16 03:15:00,
2013-11-15 21:20:00,48.6,39.9,29.72,North,1,0.0,0.0,72,0.00,CLR,,0.00,WeatherDisplay:10.37,2013-11-16 03:20:00,
2013-11-15 21:25:00,48.9,40.6,29.72,North,1,0.0,0.0,73,0.00,CLR,,0.00,WeatherDisplay:10.37,2013-11-16 03:25:00,
2013-11-15 21:30:00,49.1,40.8,29.73,North,1,0.0,0.0,73,0.00,CLR,,0.00,WeatherDisplay:10.37,2013-11-16 03:30:00,
2013-11-15 21:35:00,49.1,40.8,29.72,North,1,0.0,0.0,73,0.00,CLR,,0.00,WeatherDisplay:10.37,2013-11-16 03:35:00,
2013-11-15 21:40:00,49.1,40.8,29.73,North,1,0.0,0.0,73,0.00,CLR,,0.00,WeatherDisplay:10.37,2013-11-16 03:40:00,
2013-11-15 21:45:00,49.1,40.8,29.73,North,1,0.0,0.0,73,0.00,CLR,,0.00,WeatherDisplay:10.37,2013-11-16 03:45:00,
2013-11-15 21:50:00,49.1,40.8,29.72,North,1,0.0,0.0,73,0.00,CLR,,0.00,WeatherDisplay:10.37,2013-11-16 03:50:00,
2013-11-15 21:55:00,49.1,40.8,29.72,North,1,0.0,0.0,73,0.00,CLR,,0.00,WeatherDisplay:10.37,2013-11-16 03:55:00,
2013-11-15 22:00:00,48.9,40.6,29.72,North,1,0.0,0.0,73,0.00,CLR,,0.00,WeatherDisplay:10.37,2013-11-16 04:00:00,
2013-11-15 22:05:00,48.9,41.0,29.72,North,1,0.0,0.0,74,0.00,CLR,,0.00,WeatherDisplay:10.37,2013-11-16 04:05:00,
2013-11-15 22:10:00,48.9,41.0,29.72,North,1,0.0,0.0,74,0.00,CLR,,0.00,WeatherDisplay:10.37,2013-11-16 04:10:00,
2013-11-15 22:15:00,48.9,41.0,29.72,North,1,0.0,0.0,74,0.00,CLR,,0.00,WeatherDisplay:10.37,2013-11-16 04:15:00,
2013-11-15 22:20:00,48.6,40.6,29.73,North,1,0.0,0.0,74,0.00,CLR,,0.00,WeatherDisplay:10.37,2013-11-16 04:20:00,
2013-11-15 22:25:00,48.6,40.6,29.72,North,1,0.0,0.0,74,0.00,CLR,,0.00,WeatherDisplay:10.37,2013-11-16 04:25:00,
2013-11-15 22:30:00,48.6,40.6,29.72,North,1,0.0,0.0,74,0.00,CLR,,0.00,WeatherDisplay:10.37,2013-11-16 04:30:00,
2013-11-15 22:35:00,48.6,41.0,29.73,North,1,0.0,0.0,75,0.00,CLR,,0.00,WeatherDisplay:10.37,2013-11-16 04:35:00,
2013-11-15 22:40:00,48.4,40.8,29.73,North,1,0.0,0.0,75,0.00,CLR,,0.00,WeatherDisplay:10.37,2013-11-16 04:40:00,
2013-11-15 22:45:00,48.4,40.8,29.73,North,1,0.0,0.0,75,0.00,CLR,,0.00,WeatherDisplay:10.37,2013-11-16 04:45:00,
2013-11-15 22:50:00,48.4,40.8,29.73,North,1,0.0,0.0,75,0.00,CLR,,0.00,WeatherDisplay:10.37,2013-11-16 04:50:00,
2013-11-15 22:55:00,48.4,41.2,29.73,North,1,0.0,0.0,76,0.00,CLR,,0.00,WeatherDisplay:10.37,2013-11-16 04:55:00,
2013-11-15 23:00:00,48.2,41.0,29.73,North,1,0.0,0.0,76,0.00,CLR,,0.00,WeatherDisplay:10.37,2013-11-16 05:00:00,
2013-11-15 23:01:00,48.0,40.8,29.73,North,1,0.0,0.0,76,0.00,CLR,,0.00,WeatherDisplay:10.37,2013-11-16 05:01:00,
2013-11-15 23:06:00,48.0,40.8,29.73,North,1,0.0,0.0,76,0.00,CLR,,0.00,WeatherDisplay:10.37,2013-11-16 05:06:00,
2013-11-15 23:11:00,48.0,41.2,29.73,North,1,0.0,0.0,77,0.00,CLR,,0.00,WeatherDisplay:10.37,2013-11-16 05:11:00,
2013-11-15 23:16:00,48.0,41.2,29.73,North,1,0.0,0.0,77,0.00,CLR,,0.00,WeatherDisplay:10.37,2013-11-16 05:16:00,
2013-11-15 23:21:00,48.0,41.2,29.73,North,1,0.0,0.0,77,0.00,CLR,,0.00,WeatherDisplay:10.37,2013-11-16 05:21:00,
2013-11-15 23:26:00,47.8,41.3,29.73,North,1,0.0,0.0,78,0.00,CLR,,0.00,WeatherDisplay:10.37,2013-11-16 05:26:00,
2013-11-15 23:31:00,47.8,41.3,29.73,North,1,0.0,0.0,78,0.00,CLR,,0.00,WeatherDisplay:10.37,2013-11-16 05:31:00,
2013-11-15 23:36:00,47.8,41.3,29.73,North,1,0.0,0.0,78,0.00,CLR,,0.00,WeatherDisplay:10.37,2013-11-16 05:36:00,
2013-11-15 23:41:00,47.8,41.3,29.73,North,1,0.0,0.0,78,0.00,CLR,,0.00,WeatherDisplay:10.37,2013-11-16 05:41:00,
2013-11-15 23:46:00,47.8,41.3,29.73,North,1,0.0,0.0,78,0.00,CLR,,0.00,WeatherDisplay:10.37,2013-11-16 05:46:00,
2013-11-15 23:51:00,47.8,41.3,29.72,North,1,0.0,0.0,78,0.00,CLR,,0.00,WeatherDisplay:10.37,2013-11-16 05:51:00,
2013-11-15 23:56:00,47.8,41.3,29.73,North,1,0.0,0.0,78,0.00,CLR,,0.00,WeatherDisplay:10.37,2013-11-16 05:56:00,